Flag for Germany Weather past 2 weeks in Idar-Oberstein, Rhineland-Palatinate, Germany

Now
57 °F

Clear.


Feels Like: 57 °F
Forecast: 53 / 63 °F
Wind: 3 mph from West

Location: Hahn

Current Time: Aug 30, 2014 at 2:29:36 AM

Latest Report: Aug 30, 2014 at 1:50 AM


Visibility: 10 mi

Pressure: 30.09 "Hg

Humidity: 88%

Dew point: 54 °F

Location of Idar-ObersteinLocation

Historic Weather in Idar-Oberstein — Graph

°F

Idar-Oberstein temperature yesterday

Maximum temperature yesterday: 70 °F (at 3:20 PM)
Minimum temperature yesterday: 57 °F (at 6:50 AM)
Average temperature yesterday: 62 °F

Past Weeks' High & Low Weather Summary

 TemperatureHumidityPressure
High70 °F (Aug 29, 3:20 PM)100% (Aug 15, 3:20 AM)30.15 "Hg (Aug 15, 3:20 AM)
Low43 °F (Aug 24, 6:20 AM)45% (Aug 21, 5:50 PM)29.62 "Hg (Aug 26, 5:50 AM)
Average55 °F83%29.97 "Hg
* Reported Aug 15 1:20 AM — Aug 30 1:20 AM, Idar-Oberstein, Weather by CustomWeather, © 2014

Note: Actual official high and low records may vary slightly from our data, if they occured in-between our weather recording intervals... More about our weather records

Advertising

Idar-Oberstein weather history for previous 24 hours

 ConditionsComfort  
Time TempWeatherWind HumidityBarometerVisibility
1:20 AM
Aug 30
57 °FClear.7 mph88%30.09 "Hg10 mi
12:50 AM57 °FClear.7 mph94%30.09 "Hg10 mi
12:20 AM59 °FClear.6 mph94%30.09 "Hg10 mi
11:50 PM
Aug 29
59 °FClear.7 mph88%30.09 "Hg10 mi
11:20 PM59 °FPartly cloudy.5 mph94%30.09 "HgN/A
9:20 PM61 °FPartly sunny.3 mph88%30.07 "HgN/A
8:50 PM63 °FPartly sunny.5 mph83%30.04 "HgN/A
8:20 PM63 °FPartly sunny.6 mph83%30.04 "HgN/A
7:50 PM64 °FPartly sunny.5 mph78%30.04 "HgN/A
7:20 PM64 °FPartly sunny.7 mph73%30.04 "HgN/A
6:50 PM66 °FPartly sunny.8 mph73%30.04 "HgN/A
6:20 PM66 °FBroken clouds.7 mph68%30.04 "HgN/A
5:50 PM66 °FScattered showers. Partly sunny.9 mph68%30.04 "HgN/A
5:20 PM68 °FPartly sunny.9 mph60%30.04 "HgN/A
4:50 PM68 °FPartly sunny.7 mph64%30.04 "HgN/A
4:20 PM68 °FScattered clouds.7 mph60%30.04 "HgN/A
3:50 PM68 °FScattered clouds.6 mph60%30.04 "HgN/A
3:20 PM70 °FPassing clouds.9 mph57%30.04 "HgN/A
2:50 PM68 °FScattered clouds.9 mph60%30.07 "HgN/A
2:20 PM66 °FPassing clouds.8 mph68%30.07 "HgN/A
1:50 PM68 °FPassing clouds.7 mph64%30.07 "HgN/A
1:20 PM66 °FPassing clouds.5 mph68%30.07 "HgN/A
12:50 PM66 °FPassing clouds.8 mph68%30.07 "HgN/A
12:20 PM64 °FPassing clouds.7 mph78%30.07 "HgN/A
11:50 AM63 °FPassing clouds.7 mph77%30.07 "HgN/A
11:20 AM63 °FPassing clouds.8 mph77%30.07 "HgN/A
10:50 AM63 °FPassing clouds.8 mph77%30.07 "HgN/A
10:20 AM61 °FPassing clouds.6 mph83%30.07 "HgN/A
9:50 AM59 °FScattered clouds.6 mph88%30.07 "HgN/A
9:20 AM59 °FPartly sunny.6 mph94%30.07 "HgN/A
8:50 AM59 °FPartly sunny.7 mph94%30.04 "HgN/A
8:20 AM57 °FPartly sunny.5 mph100%30.04 "HgN/A
7:50 AM57 °FFog.5 mph100%30.04 "HgN/A
7:20 AM57 °FPassing clouds.5 mph100%30.04 "HgN/A
6:50 AM57 °FPassing clouds.6 mph100%30.04 "Hg5 mi
6:20 AM59 °FPartly cloudy.6 mph94%30.04 "HgN/A
5:50 AM59 °FPassing clouds.6 mph100%30.04 "HgN/A
5:20 AM59 °FPassing clouds.6 mph100%30.01 "HgN/A
4:50 AM59 °FPassing clouds.7 mph100%30.01 "HgN/A
4:20 AM59 °FPassing clouds.6 mph100%30.01 "HgN/A
3:50 AM59 °FPassing clouds.3 mph100%30.01 "HgN/A
3:20 AM59 °FPassing clouds.5 mph100%30.01 "HgN/A
2:50 AM61 °FPassing clouds.6 mph94%30.01 "HgN/A
2:20 AM61 °FPassing clouds.7 mph94%30.01 "HgN/A
Weather by CustomWeather, © 2014

See weather overviewHow to use our weather pages